Starlink 31844

operational
NORAD ID: 60583 Int'l Des: 2024-150 Owner: SPXS Country: US Constellation: starlink
LEOCIRCULAR

关于 Starlink 31844

正在加载描述...

实时位置

正在加载3D地球...

即将过境

高度历史

Altitude vs Time

uPlot chart will show altitude changes over time

两行轨道根数

1 60583U 24150A 25308.59879914 -.00000132 00000-0 76924-5 0 9994
2 60583 53.1581 167.7594 0001497 98.9745 261.1426 15.30192354 68895
Epoch: Nov 4, 2025 • Age: 9 hours

当前状态

高度 486.0 km
速度 7.62 km/s
星下点 -32.70°S, 17.45°W
发射日期 Aug 20, 2024
运行时间 1.2 years
类型 internet

技术详情

分类 Payload
质量 730.00 kg
干质量 700.00 kg
总质量 730.00 kg
长度 0.30 m
直径 4.10 m
跨度 29.00 m
形状 Box + pan
制造商 SPXS
平台类型 Starlink V2M
阶段状态 In Orbit
所有者/国家 SPXS/US

大型星座

Loading constellations...